User: anonymous   Login
Location: Newark
(39.9500°N, 8.6833°E)
Time: 09:19:05
(UTC+00:00)
Language:

NO-84 - Orbit

View from above orbital plane
View from above orbital plane
View from above satellite
View from above satellite

Ground track
Ground track

The orbit data is extracted from the following two-line orbital elements,

1 40654U 15025D   20218.17134819  .00009493  00000-0  11169-3 0  9995
2 40654  54.9856  75.9243 0111464 316.0104  43.2098 15.55038150176609
Epoch (UTC): 05 August 2020 04:06:44
Eccentricity: 0.0111464
inclination: 54.9856°
perigee height: 326 km
apogee height: 477 km
right ascension of ascending node: 75.9243°
argument of perigee: 316.0104°
revolutions per day: 15.55038150
mean anomaly at epoch: 43.2098°
orbit number at epoch: 17660

The dashed part of the orbit path shows where the satellite is in the earth's shadow,  

DLR